User: anonymous   Login
Location: Hungerford
(51.4167°N, 1.5167°W)
Time: 02:53:01
(UTC+00:00)
Language:

OPS 6432 - Orbit

View from above orbital plane
View from above orbital plane
View from above satellite
View from above satellite

Ground track
Ground track

The orbit data is extracted from the following two-line orbital elements,

1 14112U 83056A   20314.17358261 0.00002000  00000-0  14206-3 0    05
2 14112  63.3360   0.8324 0899816  93.7759 266.2241 13.57934329    09
Epoch (UTC): 09 November 2020 04:09:57
Eccentricity: 0.0899816
inclination: 63.3360°
perigee height: 375 km
apogee height: 1711 km
right ascension of ascending node: 0.8324°
argument of perigee: 93.7759°
revolutions per day: 13.57934329
mean anomaly at epoch: 266.2241°
orbit number at epoch: 0

The dashed part of the orbit path shows where the satellite is in the earth's shadow,  

DLR